Location: Coors Field
(39.7564°N, 104.9943°W)
Time: 10:00:03
(UTC-07:00)

ISS - Visible Passes

Search period start: 14 February 2016 00:00
Search period end: 24 February 2016 00:00
Orbit: 398 x 407 km, 51.6° (Epoch: 14 February)

Date Brightness Start Highest point End Pass type
(mag) Time Alt. Az. Time Alt. Az. Time Alt. Az.
14 Feb -1.0 19:32:26 10° NW 19:33:37 19° NNW 19:33:37 19° NNW visible
15 Feb -1.8 18:39:53 10° NNW 18:42:27 21° NNE 18:43:11 19° NE visible
16 Feb -2.5 19:23:06 10° NW 19:25:29 45° NNW 19:25:29 45° NNW visible
17 Feb -2.6 18:30:23 10° NW 18:33:26 37° NNE 18:35:15 19° E visible
17 Feb -0.2 20:07:07 10° W 20:07:55 15° W 20:07:55 15° W visible
18 Feb -2.5 19:13:55 10° WNW 19:17:02 46° SW 19:17:51 36° S visible
19 Feb -3.4 18:21:00 10° NW 18:24:15 85° NE 18:27:28 10° SE visible
20 Feb -0.7 19:05:12 10° W 19:07:33 19° SW 19:09:54 10° S visible
21 Feb -1.8 18:11:50 10° WNW 18:14:51 37° SW 18:17:51 10° SSE visible
